Tracking 31028 objects as of 17-Jul-2025
HD Live streaming from Space Station
objects crossing your sky now

STARLINK-34546

Track STARLINK-34546 now!
10-day predictions
STARLINK-34546 is classified as:


NORAD ID: 64718
Int'l Code: 2025-142Y
Perigee: 397.8 km
Apogee: 402.3 km
Inclination: 70.0 °
Period: 92.4 minutes
Semi major axis: 6771 km
RCS: Unknown
Launch date: June 28, 2025
Source: United States (US)
Launch site: AIR FORCE WESTERN TEST RANGE (AFWTR)
Your satellite tracking list
Your tracking list is empty




NASA's NSSDC Master Catalog

Two Line Element Set (TLE):
1 64718U 25142Y   25198.25002315 -.01616876  00000-0 -24134-1 0  9995
2 64718  70.0126 198.2922 0003357 272.3685 295.0228 15.58190478  4110
Source of the keplerian elements: AFSPC